Location: ????????
(54.8751°N, 38.5756°E)
Time: 03:17:15
(UTC+00:00)

Cosmos 1420 Rocket - Visible Passes

Search period start: 25 July 2024 00:00
Search period end: 04 August 2024 00:00
Orbit: 752 x 778 km, 74.0° (Epoch: 24 July)

Date Brightness Start Highest point End Pass type
(mag) Time Alt. Az. Time Alt. Az. Time Alt. Az.
25 Jul 7.0 00:18:59 10° NNW 00:19:30 10° NNW 00:20:02 10° N visible
25 Jul 5.8 18:30:55 10° ESE 18:33:29 14° E 18:36:03 10° ENE visible
25 Jul 4.0 20:10:02 14° SSW 20:14:33 70° ESE 20:19:48 10° NNE visible
25 Jul 5.8 21:52:28 10° WSW 21:57:03 29° NW 22:01:38 10° NNE visible
25 Jul 6.8 23:39:03 10° NW 23:40:56 12° NNW 23:42:48 10° N visible
26 Jul 4.4 19:32:14 13° S 19:36:45 46° ESE 19:41:46 10° NE visible
26 Jul 5.2 21:13:55 10° WSW 21:18:53 40° NW 21:23:50 10° NNE visible
26 Jul 6.6 22:59:38 10° WNW 23:02:25 14° NNW 23:05:12 10° N visible
27 Jul 4.9 18:54:29 10° SSE 18:59:03 30° ESE 19:03:35 10° NE visible
27 Jul 4.6 20:35:36 10° SW 20:40:48 57° WNW 20:46:00 10° NNE visible
27 Jul 6.5 22:20:26 10° WNW 22:23:58 18° NNW 22:27:31 10° N visible
28 Jul 5.4 18:17:42 10° SE 18:21:26 20° E 18:25:09 10° NE visible
28 Jul 4.1 19:57:31 10° SSW 20:02:49 84° WNW 20:08:06 10° NNE visible
28 Jul 6.2 21:41:28 10° W 21:45:38 23° NW 21:49:47 10° NNE visible
28 Jul 7.1 23:28:55 10° NNW 23:29:45 10° NNW 23:30:34 10° N visible
29 Jul 4.0 19:19:42 10° SSW 19:24:56 65° ESE 19:30:09 10° NNE visible
29 Jul 5.8 21:02:42 10° WSW 21:07:21 30° NW 21:12:00 10° NNE visible
29 Jul 6.9 22:49:09 10° NW 22:51:10 12° NNW 22:53:12 10° N visible
30 Jul 4.4 18:42:11 10° S 18:47:08 43° ESE 18:52:05 10° NE visible
30 Jul 5.2 20:24:12 10° WSW 20:29:11 42° NW 20:34:12 10° NNE visible
30 Jul 6.7 22:09:45 10° WNW 22:12:40 15° NNW 22:15:35 10° N visible
31 Jul 4.5 19:45:54 10° SW 19:51:08 61° WNW 19:56:21 10° NNE visible
31 Jul 6.6 21:30:36 10° WNW 21:34:15 18° NW 21:37:53 10° N visible
01 Aug 4.0 19:07:52 10° SSW 19:13:09 90° WNW 19:18:26 10° NNE visible
01 Aug 6.3 20:51:39 10° W 20:55:54 24° NW 21:00:08 10° NNE visible
01 Aug 7.2 22:38:55 10° NNW 22:39:58 11° NNW 22:41:01 10° N visible
02 Aug 7.4 00:24:05 10° N 00:24:41 10° NNE 00:25:16 10° NNE visible
02 Aug 4.1 18:30:06 10° S 18:35:17 61° ESE 18:40:27 10° NNE visible
02 Aug 5.8 20:12:56 10° WSW 20:17:39 32° NW 20:22:22 10° NNE visible
02 Aug 7.0 21:59:14 10° NW 22:01:24 12° NNW 22:03:35 10° N visible
03 Aug 5.2 19:34:27 10° SW 19:39:29 45° NW 19:44:32 10° NNE visible
03 Aug 6.9 21:19:52 10° WNW 21:22:54 15° NNW 21:25:56 10° N visible
